CST,Max TemperatureF,Mean TemperatureF,Min TemperatureF,Max Dew PointF,MeanDew PointF,Min DewpointF,Max Humidity, Mean Humidity, Min Humidity, Max Sea Level PressureIn, Mean Sea Level PressureIn, Min Sea Level PressureIn, Max VisibilityMiles, Mean VisibilityMiles, Min VisibilityMiles, Max Wind SpeedMPH, Mean Wind SpeedMPH, Max Gust SpeedMPH,PrecipitationIn, CloudCover, Events, WindDirDegrees
2013-2-1,24,10,-5,14,0,-11,78,64,52,30.43,30.27,30.08,10,10,10,17,6,24,0.00,4,,194
2013-2-2,32,26,23,25,18,12,86,72,63,30.21,30.12,30.06,10,10,7,14,6,17,0.00,6,Snow,288
2013-2-3,37,29,21,25,19,12,86,64,44,30.23,30.07,29.81,10,10,10,18,10,25,0.00,0,,236
2013-2-4,32,26,19,25,20,18,93,79,64,30.01,29.91,29.77,10,10,10,24,7,28,0.00,3,,359
2013-2-5,48,36,23,34,27,19,100,76,53,30.10,29.99,29.85,10,10,7,15,5,22,0.03,1,,297
2013-2-6,51,37,23,37,31,21,100,76,50,30.10,29.98,29.88,10,10,10,14,3,18,0.00,2,Rain,161
2013-2-7,41,34,28,39,32,25,100,91,80,30.22,30.02,29.85,10,8,0,21,8,29,0.07,7,Fog-Rain,342
2013-2-8,30,27,24,25,23,21,93,87,80,30.35,30.28,30.19,10,10,7,14,7,20,0.00,6,,94
2013-2-9,44,35,26,34,29,25,100,82,61,30.22,30.00,29.72,10,9,7,16,10,22,0.02,4,Rain,148
2013-2-10,46,38,28,43,33,21,100,87,65,29.78,29.51,29.32,10,8,2,28,15,40,0.06,8,Rain,205
2013-2-11,37,28,19,27,22,19,100,75,60,30.16,30.04,29.79,10,10,10,26,15,36,0.00,1,,294
2013-2-12,46,30,15,27,21,14,100,76,34,30.17,30.03,29.91,10,9,5,13,3,20,0.00,0,,217
2013-2-13,51,35,19,28,24,18,100,68,35,29.91,29.82,29.74,10,10,10,12,3,17,0.00,0,,259
2013-2-14,44,35,24,30,27,16,100,71,46,30.23,29.98,29.77,10,10,4,18,10,25,0.00,4,Snow,311
2013-2-15,30,21,12,19,14,9,93,73,51,30.37,30.31,30.24,10,10,10,15,8,20,0.00,3,,332
2013-2-16,33,22,10,19,15,9,100,73,38,30.32,30.18,30.04,10,10,10,13,5,16,0.00,4,,199
2013-2-17,53,37,21,30,24,18,93,64,38,30.04,29.85,29.61,10,10,10,17,6,23,0.00,0,,159
2013-2-18,39,28,17,30,23,10,100,77,59,30.05,29.74,29.54,10,10,1,25,10,33,0.00,2,Snow,326
2013-2-19,26,17,8,12,3,-2,79,59,31,30.35,30.24,30.06,10,10,10,20,12,32,0.00,1,,325
2013-2-20,24,12,1,7,2,-2,85,62,40,30.40,30.32,30.23,10,10,10,12,6,,0.00,2,,71
2013-2-21,21,20,19,19,14,7,100,80,54,30.25,30.00,29.79,10,5,0,21,10,26,0.11,7,Snow,71
2013-2-22,23,14,6,19,14,5,100,85,68,30.04,29.93,29.78,10,9,3,16,6,20,0.00,4,Snow,294
2013-2-23,30,12,-5,21,9,-9,100,84,64,30.03,29.95,29.89,10,9,4,12,2,,0.00,0,Snow,184
2013-2-24,39,24,8,27,20,7,100,80,52,30.05,29.99,29.93,10,8,2,7,3,,0.00,2,,108
2013-2-25,35,32,28,28,27,25,93,81,65,30.05,29.98,29.84,10,9,5,14,7,,0.00,3,,23
2013-2-26,30,28,26,28,26,25,100,93,86,29.85,29.77,29.70,7,3,0,18,14,26,0.06,7,Snow,356
2013-2-27,33,28,24,25,23,21,93,80,64,30.04,29.92,29.84,10,7,1,18,12,26,0.00,5,Snow,323
2013-2-28,30,26,23,23,21,19,86,81,69,30.20,30.15,30.05,10,10,10,18,11,23,0.00,7,,329